STARLINK-35525, 66134

Orbit data source: Space-Track

STARLINK-35525, 66134 is a payload satellite owned by SpaceX/Seattle (US) in LEO that was launched on Wed, 22 Oct 2025 UTC via an FALCON 9 launch vehicle from the Air Force Western Test Range (AFWTR). Payload-class satellites include a variety of spacecraft equipped with specific instruments for various scientific and technological missions. These include communications satellites like Starlink; space stations such as the ISS; scientific satellites like the Hubble; Earth observation satellites from companies like Planet Labs, Umbra, and HawkEye 360; GPS; miniature CubeSats for education and research; and military/defense satellites.

Loading next visibility...
Identifier
66134, 2025-237W
Orbit
LEO
Country
Flag of USUS
Related business
Manufacturer
SpaceX/Seattle
Mission
Operational Commercial Communications
Bus & Motor
STARLINK V2MO, Unknown motor
Mass
575 kg wet, ~530 kg dry
Launch date (UTC)
2025-10-22 (4 months ago)
Launch vehicle
FALCON 9
Launch site
Air Force Western Test Range (AFWTR)
Object type
Payload
Rocket body
Debris
Shape & HBR
Box + 2 Pan, 17.7 m
Radar Cross Section
36.964 m²

Expand to show TLE details & history
Last TLE update: 22 hours ago

TLE from 22 hours ago
0 STARLINK-35525
1 66134U 25237W   26061.29328946  .00005317  00000-0  19158-3 0  9990
2 66134  53.1604  74.2950 0001513 100.4418 259.6754 15.30189552 21477
Epoch: 2026-03-02T07:02Z
TLE epoch observation values (Epoch: 2026-03-02T07:02:20.209Z)
Latitude
0.00004°
Longitude
168.62205°
Altitude
476.332 km
Speed
7.629 km/s
True Right ascension
04h 57m 10s
True Declination
0° 00' 00"
Sunlit
Object was in daylight at epoch
Visualization orbit readout
Latitude
Unknown
Longitude
Unknown
Altitude
Unknown
Speed
Unknown
Apparent Right ascension
Unknown
Apparent Declination
Unknown
Sunlit
N/A
Visualization observer readout
Local Sidereal Time
08:58:18
Azimuth
Unknown
Elevation
Unknown
Doppler factor
Unknown
Orbital elements
Apogee altitude
476.54 km
Perigee altitude
474.466 km
Semi-major axis
6,853.64 km
Eccentricity
0.00015
Inclination
53.1604°
RAAN
74.295°
Arg. of periapsis
100.4418°
True anomaly
259.65834°
Mean anomaly
259.6754°
Eccentric anomaly
259.66687°
Mean motion
3.82526 °/min
Orbital period
94.11 mins
BSTAR
0.00019158
Loading maneuver chart data...
Computing Atmospheric mass density...
Loading historical data...
Loading historical data...
Loading historical data...
Loading historical data...
Loading historical data...
Loading historical data...
Loading historical data...

Documentation

Showing up to 5 results
|